Location: Champseau
(45.8333°N, 1.7667°E)
Time: 18:19:40
(UTC+00:00)

SL-16 R/B - Pass Details

Date: 18 April 2021
Orbit: 842 x 846 km, 71.0° (Epoch: 11 May)

Event Time Altitude Azimuth Distance (km) Brightness Sun altitude
Rises 19:07:26 0° 326° (NNW) 3,415 6.4 -4.7°
Reaches altitude 10° 19:10:03 10° 318° (NW) 2,476 5.8 -5.1°
Maximum altitude 19:15:09 35° 254° (WSW) 1,331 3.9 -6.0°
Drops below altitude 10° 19:20:14 10° 190° (S) 2,460 4.5 -6.8°
Sets 19:22:50 0° 182° (S) 3,390 5.1 -7.2°
